Home > Weather > Masaya > Past weeks

Flag for Nicaragua Weather for the Past 2 Weeks in Masaya, Nicaragua

Now
97 °F

Scattered clouds.


Feels Like: 107 °F
Forecast: N/A
Wind: 9 mph from Southeast

Location: Managua A. C. Sandino

Current Time: May 1, 2016 at 4:18:53 PM

Latest Report: May 1, 2016 at 4:00 PM


Visibility: N/A

Pressure: 29.65 "Hg

Humidity: 47%

Dew Point: 73 °F

Location of MasayaLocation

Historic Weather in Masaya — Graph

°F

Masaya Temperature Yesterday

Maximum temperature yesterday: 93 °F (at 3:00 PM)
Minimum temperature yesterday: 79 °F (at 4:00 AM)
Average temperature yesterday: 86 °F

High & Low Weather Summary for the Past Weeks

 TemperatureHumidityPressure
High100 °F (Apr 24, 3:00 PM)94% (Apr 27, 6:00 AM)29.92 "Hg (Apr 27, 6:00 AM)
Low75 °F (Apr 27, 6:00 AM)34% (Apr 17, 3:00 PM)29.65 "Hg (Apr 25, 4:00 PM)
Average88 °F60%29.79 "Hg
* Reported Apr 16 2:00 PM — May 1 2:00 PM, Masaya, Weather by CustomWeather, © 2016

Note: Actual official high and low records may vary slightly from our data, if they occured in-between our weather recording intervals... More about our weather records

Advertising

Masaya Weather History for the Previous 24 Hours

Scroll right to see more
 ConditionsComfort  
Time TempWeatherWind HumidityBarometerVisibility
2:00 PM
Sun, May 1
97 °FScattered clouds.12 mph44%29.71 "HgN/A
1:00 PM97 °FScattered clouds.12 mph47%29.74 "HgN/A
12:00 PM95 °FScattered clouds.14 mph50%29.77 "HgN/A
11:00 AM91 °FScattered clouds.12 mph52%29.77 "HgN/A
10:00 AM90 °FScattered clouds.14 mph59%29.80 "HgN/A
9:00 AM88 °FScattered clouds.12 mph66%29.80 "HgN/A
8:00 AM84 °FScattered clouds.7 mph70%29.80 "HgN/A
7:00 AM82 °FScattered clouds.5 mph79%29.77 "HgN/A
6:00 AM81 °FPartly sunny.5 mph84%29.77 "HgN/A
5:00 AM82 °FPassing clouds.No wind79%29.77 "HgN/A
4:00 AM82 °FPassing clouds.No wind84%29.74 "HgN/A
3:00 AM84 °FPassing clouds.5 mph74%29.74 "HgN/A
1:00 AM84 °FPassing clouds.5 mph74%29.77 "HgN/A
12:00 AM84 °FPassing clouds.7 mph74%29.77 "HgN/A
11:00 PM
Sat, Apr 30
84 °FPassing clouds.5 mph74%29.80 "HgN/A
10:00 PM86 °FPassing clouds.7 mph75%29.80 "HgN/A
9:00 PM86 °FPassing clouds.7 mph66%29.77 "HgN/A
8:00 PM88 °FPassing clouds.5 mph66%29.77 "HgN/A
7:00 PM88 °FPassing clouds.No wind66%29.74 "HgN/A
6:00 PM86 °FPassing clouds.7 mph70%29.68 "Hg5 mi
5:00 PM90 °FScattered clouds.7 mph67%29.68 "Hg5 mi
4:00 PM90 °FScattered clouds.9 mph67%29.68 "Hg6 mi
Weather by CustomWeather, © 2016

See weather overviewHow to use our weather pages